User: anonymous   Login
Location: Mactaquac Provincial Park
(45.9573°N, 66.8897°W)
Time: 04:26:57
(UTC-04:00)
Language:

CENTAUR R/B - Orbit

View from above orbital plane
View from above orbital plane
View from above satellite
View from above satellite

Ground track
Ground track

The orbit data is extracted from the following two-line orbital elements,

1 26906U 01040B   16338.25740223 0.00000020  00000-0  24582-4 0    04
2 26906  63.4545 115.5489 0336000 342.6844  17.3156 13.43999519    04
Epoch (UTC): 03 December 2016 06:10:39
Eccentricity: 0.0336000
inclination: 63.4545°
perigee height: 843 km
apogee height: 1345 km
right ascension of ascending node: 115.5489°
argument of perigee: 342.6844°
revolutions per day: 13.43999519
mean anomaly at epoch: 17.3156°
orbit number at epoch: 0

The dashed part of the orbit path shows where the satellite is in the earth's shadow,  

DLR